owner,sensor,date,latitude,longitude,vertical_datum,sea_water_practical_salinity,qcFlag 
TCOON,ioos:station:TCOON:043:1,2015-07-01T00:30:00Z,27.8838,-97.5332,0.0,6.4,1111122 
TCOON,ioos:station:TCOON:043:1,2015-07-01T01:30:00Z,27.8838,-97.5332,0.0,6.6,1111122 
TCOON,ioos:station:TCOON:043:1,2015-07-01T02:30:00Z,27.8838,-97.5332,0.0,6.8,1111122 
TCOON,ioos:station:TCOON:043:1,2015-07-01T03:30:00Z,27.8838,-97.5332,0.0,7.0,1111122 
TCOON,ioos:station:TCOON:043:1,2015-07-01T04:30:00Z,27.8838,-97.5332,0.0,7.1,1111122 
TCOON,ioos:station:TCOON:043:1,2015-07-01T05:30:00Z,27.8838,-97.5332,0.0,6.9,1111122 
TCOON,ioos:station:TCOON:043:1,2015-07-01T06:30:00Z,27.8838,-97.5332,0.0,6.7,1111122 
TCOON,ioos:station:TCOON:043:1,2015-07-01T07:30:00Z,27.8838,-97.5332,0.0,6.8,1111122 
TCOON,ioos:station:TCOON:043:1,2015-07-01T08:30:00Z,27.8838,-97.5332,0.0,6.9,1111122 
TCOON,ioos:station:TCOON:043:1,2015-07-01T09:30:00Z,27.8838,-97.5332,0.0,7.0,1111122 
TCOON,ioos:station:TCOON:043:1,2015-07-01T10:30:00Z,27.8838,-97.5332,0.0,6.9,1111122 
TCOON,ioos:station:TCOON:043:1,2015-07-01T11:30:00Z,27.8838,-97.5332,0.0,6.9,1111122 
TCOON,ioos:station:TCOON:043:1,2015-07-01T12:30:00Z,27.8838,-97.5332,0.0,6.8,1111122 
TCOON,ioos:station:TCOON:043:1,2015-07-01T13:30:00Z,27.8838,-97.5332,0.0,6.8,1111122 
TCOON,ioos:station:TCOON:043:1,2015-07-01T14:30:00Z,27.8838,-97.5332,0.0,6.7,1111122 
TCOON,ioos:station:TCOON:043:1,2015-07-01T15:30:00Z,27.8838,-97.5332,0.0,6.8,1111122 
TCOON,ioos:station:TCOON:043:1,2015-07-01T16:30:00Z,27.8838,-97.5332,0.0,6.8,1111122 
TCOON,ioos:station:TCOON:043:1,2015-07-01T17:30:00Z,27.8838,-97.5332,0.0,6.8,1111122 
TCOON,ioos:station:TCOON:043:1,2015-07-01T18:30:00Z,27.8838,-97.5332,0.0,6.7,1111122 
TCOON,ioos:station:TCOON:043:1,2015-07-01T19:30:00Z,27.8838,-97.5332,0.0,6.7,1111122 
TCOON,ioos:station:TCOON:043:1,2015-07-01T20:30:00Z,27.8838,-97.5332,0.0,6.6,1111122 
TCOON,ioos:station:TCOON:043:1,2015-07-01T21:30:00Z,27.8838,-97.5332,0.0,6.5,1111122 
TCOON,ioos:station:TCOON:043:1,2015-07-01T22:30:00Z,27.8838,-97.5332,0.0,6.5,1111122 
TCOON,ioos:station:TCOON:043:1,2015-07-01T23:30:00Z,27.8838,-97.5332,0.0,6.6,1111122 
TCOON,ioos:station:TCOON:043:1,2015-07-02T00:30:00Z,27.8838,-97.5332,0.0,6.6,1111122 
TCOON,ioos:station:TCOON:043:1,2015-07-02T01:30:00Z,27.8838,-97.5332,0.0,6.8,1111122 
TCOON,ioos:station:TCOON:043:1,2015-07-02T02:30:00Z,27.8838,-97.5332,0.0,7.0,1111122 
TCOON,ioos:station:TCOON:043:1,2015-07-02T03:30:00Z,27.8838,-97.5332,0.0,7.1,1111122 
TCOON,ioos:station:TCOON:043:1,2015-07-02T04:30:00Z,27.8838,-97.5332,0.0,7.2,1111122 
TCOON,ioos:station:TCOON:043:1,2015-07-02T05:30:00Z,27.8838,-97.5332,0.0,7.1,1111122 
TCOON,ioos:station:TCOON:043:1,2015-07-02T06:30:00Z,27.8838,-97.5332,0.0,7.2,1111122 
TCOON,ioos:station:TCOON:043:1,2015-07-02T07:30:00Z,27.8838,-97.5332,0.0,7.2,1111122 
TCOON,ioos:station:TCOON:043:1,2015-07-02T08:30:00Z,27.8838,-97.5332,0.0,7.3,1111122 
TCOON,ioos:station:TCOON:043:1,2015-07-02T09:30:00Z,27.8838,-97.5332,0.0,7.3,1111122 
TCOON,ioos:station:TCOON:043:1,2015-07-02T10:30:00Z,27.8838,-97.5332,0.0,7.3,1111122 
TCOON,ioos:station:TCOON:043:1,2015-07-02T11:30:00Z,27.8838,-97.5332,0.0,7.4,1111122 
TCOON,ioos:station:TCOON:043:1,2015-07-02T12:30:00Z,27.8838,-97.5332,0.0,7.4,1111122 
TCOON,ioos:station:TCOON:043:1,2015-07-02T13:30:00Z,27.8838,-97.5332,0.0,7.5,1111122 
TCOON,ioos:station:TCOON:043:1,2015-07-02T14:30:00Z,27.8838,-97.5332,0.0,7.6,1111122 
TCOON,ioos:station:TCOON:043:1,2015-07-02T16:30:00Z,27.8838,-97.5332,0.0,7.5,1111122 
TCOON,ioos:station:TCOON:043:1,2015-07-02T17:30:00Z,27.8838,-97.5332,0.0,7.3,1111122 
TCOON,ioos:station:TCOON:043:1,2015-07-02T18:30:00Z,27.8838,-97.5332,0.0,6.9,1111122 
TCOON,ioos:station:TCOON:043:1,2015-07-02T19:30:00Z,27.8838,-97.5332,0.0,6.7,1111122 
TCOON,ioos:station:TCOON:043:1,2015-07-02T20:30:00Z,27.8838,-97.5332,0.0,6.6,1111122 
TCOON,ioos:station:TCOON:043:1,2015-07-02T21:30:00Z,27.8838,-97.5332,0.0,0.1,1111122 
TCOON,ioos:station:TCOON:043:1,2015-07-03T13:30:00Z,27.8838,-97.5332,0.0,7.9,1111122 
TCOON,ioos:station:TCOON:043:1,2015-07-03T14:30:00Z,27.8838,-97.5332,0.0,7.8,1111122 
TCOON,ioos:station:TCOON:043:1,2015-07-03T15:30:00Z,27.8838,-97.5332,0.0,7.7,1111122 
TCOON,ioos:station:TCOON:043:1,2015-07-03T16:30:00Z,27.8838,-97.5332,0.0,7.7,1111122 
TCOON,ioos:station:TCOON:043:1,2015-07-03T17:30:00Z,27.8838,-97.5332,0.0,7.8,1111122 
TCOON,ioos:station:TCOON:043:1,2015-07-03T18:30:00Z,27.8838,-97.5332,0.0,7.9,1111122 
TCOON,ioos:station:TCOON:043:1,2015-07-03T19:30:00Z,27.8838,-97.5332,0.0,7.5,1111122 
TCOON,ioos:station:TCOON:043:1,2015-07-03T20:30:00Z,27.8838,-97.5332,0.0,6.9,1111122 
TCOON,ioos:station:TCOON:043:1,2015-07-03T21:30:00Z,27.8838,-97.5332,0.0,6.7,1111122 
TCOON,ioos:station:TCOON:043:1,2015-07-03T22:30:00Z,27.8838,-97.5332,0.0,6.6,1111122 
TCOON,ioos:station:TCOON:043:1,2015-07-03T23:30:00Z,27.8838,-97.5332,0.0,6.5,1111122 
TCOON,ioos:station:TCOON:043:1,2015-07-04T00:30:00Z,27.8838,-97.5332,0.0,6.5,1111122 
TCOON,ioos:station:TCOON:043:1,2015-07-04T01:30:00Z,27.8838,-97.5332,0.0,6.5,1111122 
TCOON,ioos:station:TCOON:043:1,2015-07-04T02:30:00Z,27.8838,-97.5332,0.0,6.5,1111122 
TCOON,ioos:station:TCOON:043:1,2015-07-04T03:30:00Z,27.8838,-97.5332,0.0,6.5,1111122 
TCOON,ioos:station:TCOON:043:1,2015-07-04T04:30:00Z,27.8838,-97.5332,0.0,6.5,1111122 
TCOON,ioos:station:TCOON:043:1,2015-07-04T05:30:00Z,27.8838,-97.5332,0.0,6.5,1111122 
TCOON,ioos:station:TCOON:043:1,2015-07-04T06:30:00Z,27.8838,-97.5332,0.0,6.5,1111122 
TCOON,ioos:station:TCOON:043:1,2015-07-04T07:30:00Z,27.8838,-97.5332,0.0,7.1,1111122 
TCOON,ioos:station:TCOON:043:1,2015-07-04T08:30:00Z,27.8838,-97.5332,0.0,7.3,1111122 
TCOON,ioos:station:TCOON:043:1,2015-07-04T09:30:00Z,27.8838,-97.5332,0.0,7.3,1111122 
TCOON,ioos:station:TCOON:043:1,2015-07-04T10:30:00Z,27.8838,-97.5332,0.0,7.4,1111122 
TCOON,ioos:station:TCOON:043:1,2015-07-04T11:30:00Z,27.8838,-97.5332,0.0,7.4,1111122 
TCOON,ioos:station:TCOON:043:1,2015-07-04T12:30:00Z,27.8838,-97.5332,0.0,7.5,1111122 
TCOON,ioos:station:TCOON:043:1,2015-07-04T13:30:00Z,27.8838,-97.5332,0.0,7.5,1111122 
TCOON,ioos:station:TCOON:043:1,2015-07-04T14:30:00Z,27.8838,-97.5332,0.0,7.5,1111122 
TCOON,ioos:station:TCOON:043:1,2015-07-04T15:30:00Z,27.8838,-97.5332,0.0,7.5,1111122 
TCOON,ioos:station:TCOON:043:1,2015-07-04T16:30:00Z,27.8838,-97.5332,0.0,7.4,1111122 
TCOON,ioos:station:TCOON:043:1,2015-07-04T17:30:00Z,27.8838,-97.5332,0.0,7.5,1111122 
TCOON,ioos:station:TCOON:043:1,2015-07-04T18:30:00Z,27.8838,-97.5332,0.0,7.4,1111122 
TCOON,ioos:station:TCOON:043:1,2015-07-04T19:30:00Z,27.8838,-97.5332,0.0,7.2,1111122 
TCOON,ioos:station:TCOON:043:1,2015-07-04T20:30:00Z,27.8838,-97.5332,0.0,6.9,1111122 
TCOON,ioos:station:TCOON:043:1,2015-07-04T21:30:00Z,27.8838,-97.5332,0.0,6.6,1111122 
TCOON,ioos:station:TCOON:043:1,2015-07-04T22:30:00Z,27.8838,-97.5332,0.0,6.4,1111122 
TCOON,ioos:station:TCOON:043:1,2015-07-04T23:30:00Z,27.8838,-97.5332,0.0,6.4,1111122 
TCOON,ioos:station:TCOON:043:1,2015-07-05T00:30:00Z,27.8838,-97.5332,0.0,6.4,1111122 
TCOON,ioos:station:TCOON:043:1,2015-07-05T01:30:00Z,27.8838,-97.5332,0.0,6.4,1111122 
TCOON,ioos:station:TCOON:043:1,2015-07-05T02:30:00Z,27.8838,-97.5332,0.0,6.5,1111122 
TCOON,ioos:station:TCOON:043:1,2015-07-05T03:30:00Z,27.8838,-97.5332,0.0,6.5,1111122 
TCOON,ioos:station:TCOON:043:1,2015-07-05T04:30:00Z,27.8838,-97.5332,0.0,6.4,1111122 
TCOON,ioos:station:TCOON:043:1,2015-07-05T05:30:00Z,27.8838,-97.5332,0.0,6.4,1111122 
TCOON,ioos:station:TCOON:043:1,2015-07-05T06:30:00Z,27.8838,-97.5332,0.0,7.6,1111122 
TCOON,ioos:station:TCOON:043:1,2015-07-05T07:30:00Z,27.8838,-97.5332,0.0,7.8,1111122 
TCOON,ioos:station:TCOON:043:1,2015-07-05T08:30:00Z,27.8838,-97.5332,0.0,7.8,1111122 
TCOON,ioos:station:TCOON:043:1,2015-07-05T09:30:00Z,27.8838,-97.5332,0.0,7.8,1111122 
TCOON,ioos:station:TCOON:043:1,2015-07-05T10:30:00Z,27.8838,-97.5332,0.0,7.8,1111122 
TCOON,ioos:station:TCOON:043:1,2015-07-05T11:30:00Z,27.8838,-97.5332,0.0,7.7,1111122 
TCOON,ioos:station:TCOON:043:1,2015-07-05T12:30:00Z,27.8838,-97.5332,0.0,7.8,1111122 
TCOON,ioos:station:TCOON:043:1,2015-07-05T13:30:00Z,27.8838,-97.5332,0.0,7.8,1111122 
TCOON,ioos:station:TCOON:043:1,2015-07-05T14:30:00Z,27.8838,-97.5332,0.0,7.7,1111122 
TCOON,ioos:station:TCOON:043:1,2015-07-05T15:30:00Z,27.8838,-97.5332,0.0,7.7,1111122 
TCOON,ioos:station:TCOON:043:1,2015-07-05T16:30:00Z,27.8838,-97.5332,0.0,7.7,1111122 
TCOON,ioos:station:TCOON:043:1,2015-07-05T17:30:00Z,27.8838,-97.5332,0.0,7.6,1111122 
TCOON,ioos:station:TCOON:043:1,2015-07-05T18:30:00Z,27.8838,-97.5332,0.0,7.6,1111122 
TCOON,ioos:station:TCOON:043:1,2015-07-05T19:30:00Z,27.8838,-97.5332,0.0,7.5,1111122 
TCOON,ioos:station:TCOON:043:1,2015-07-05T20:30:00Z,27.8838,-97.5332,0.0,7.2,1111122 
TCOON,ioos:station:TCOON:043:1,2015-07-05T21:30:00Z,27.8838,-97.5332,0.0,7.1,1111122 
TCOON,ioos:station:TCOON:043:1,2015-07-05T22:30:00Z,27.8838,-97.5332,0.0,7.0,1111122 
TCOON,ioos:station:TCOON:043:1,2015-07-05T23:30:00Z,27.8838,-97.5332,0.0,7.0,1111122 
TCOON,ioos:station:TCOON:043:1,2015-07-06T00:30:00Z,27.8838,-97.5332,0.0,7.0,1111122 
TCOON,ioos:station:TCOON:043:1,2015-07-06T01:30:00Z,27.8838,-97.5332,0.0,7.0,1111122 
TCOON,ioos:station:TCOON:043:1,2015-07-06T02:30:00Z,27.8838,-97.5332,0.0,7.0,1111122 
TCOON,ioos:station:TCOON:043:1,2015-07-06T03:30:00Z,27.8838,-97.5332,0.0,7.0,1111122 
TCOON,ioos:station:TCOON:043:1,2015-07-06T04:30:00Z,27.8838,-97.5332,0.0,7.0,1111122 
TCOON,ioos:station:TCOON:043:1,2015-07-06T05:30:00Z,27.8838,-97.5332,0.0,7.0,1111122 
TCOON,ioos:station:TCOON:043:1,2015-07-06T06:30:00Z,27.8838,-97.5332,0.0,7.0,1111122 
TCOON,ioos:station:TCOON:043:1,2015-07-06T07:30:00Z,27.8838,-97.5332,0.0,7.0,1111122 
TCOON,ioos:station:TCOON:043:1,2015-07-06T08:30:00Z,27.8838,-97.5332,0.0,7.4,1111122 
TCOON,ioos:station:TCOON:043:1,2015-07-06T09:30:00Z,27.8838,-97.5332,0.0,7.6,1111122 
TCOON,ioos:station:TCOON:043:1,2015-07-06T10:30:00Z,27.8838,-97.5332,0.0,7.5,1111122 
TCOON,ioos:station:TCOON:043:1,2015-07-06T11:30:00Z,27.8838,-97.5332,0.0,7.6,1111122 
TCOON,ioos:station:TCOON:043:1,2015-07-06T12:30:00Z,27.8838,-97.5332,0.0,7.7,1111122 
TCOON,ioos:station:TCOON:043:1,2015-07-06T13:30:00Z,27.8838,-97.5332,0.0,7.7,1111122 
TCOON,ioos:station:TCOON:043:1,2015-07-06T14:30:00Z,27.8838,-97.5332,0.0,7.7,1111122 
TCOON,ioos:station:TCOON:043:1,2015-07-06T15:30:00Z,27.8838,-97.5332,0.0,7.8,1111122 
TCOON,ioos:station:TCOON:043:1,2015-07-06T16:30:00Z,27.8838,-97.5332,0.0,7.8,1111122 
TCOON,ioos:station:TCOON:043:1,2015-07-06T17:30:00Z,27.8838,-97.5332,0.0,7.7,1111122 
TCOON,ioos:station:TCOON:043:1,2015-07-06T18:30:00Z,27.8838,-97.5332,0.0,7.7,1111122 
TCOON,ioos:station:TCOON:043:1,2015-07-06T19:30:00Z,27.8838,-97.5332,0.0,7.6,1111122 
TCOON,ioos:station:TCOON:043:1,2015-07-06T20:30:00Z,27.8838,-97.5332,0.0,7.5,1111122 
TCOON,ioos:station:TCOON:043:1,2015-07-06T21:30:00Z,27.8838,-97.5332,0.0,7.3,1111122 
TCOON,ioos:station:TCOON:043:1,2015-07-06T22:30:00Z,27.8838,-97.5332,0.0,7.2,1111122 
TCOON,ioos:station:TCOON:043:1,2015-07-06T23:30:00Z,27.8838,-97.5332,0.0,7.2,1111122 
TCOON,ioos:station:TCOON:043:1,2015-07-07T00:30:00Z,27.8838,-97.5332,0.0,7.1,1111122 
TCOON,ioos:station:TCOON:043:1,2015-07-07T01:30:00Z,27.8838,-97.5332,0.0,7.2,1111122 
TCOON,ioos:station:TCOON:043:1,2015-07-07T02:30:00Z,27.8838,-97.5332,0.0,7.2,1111122 
TCOON,ioos:station:TCOON:043:1,2015-07-07T03:30:00Z,27.8838,-97.5332,0.0,7.2,1111122 
TCOON,ioos:station:TCOON:043:1,2015-07-07T04:30:00Z,27.8838,-97.5332,0.0,7.2,1111122 
TCOON,ioos:station:TCOON:043:1,2015-07-07T05:30:00Z,27.8838,-97.5332,0.0,7.2,1111122 
TCOON,ioos:station:TCOON:043:1,2015-07-07T06:30:00Z,27.8838,-97.5332,0.0,7.2,1111122 
TCOON,ioos:station:TCOON:043:1,2015-07-07T07:30:00Z,27.8838,-97.5332,0.0,7.2,1111122 
TCOON,ioos:station:TCOON:043:1,2015-07-07T08:30:00Z,27.8838,-97.5332,0.0,7.2,1111122 
TCOON,ioos:station:TCOON:043:1,2015-07-07T09:30:00Z,27.8838,-97.5332,0.0,7.9,1111122 
TCOON,ioos:station:TCOON:043:1,2015-07-07T14:30:00Z,27.8838,-97.5332,0.0,8.0,1111122 
TCOON,ioos:station:TCOON:043:1,2015-07-07T15:30:00Z,27.8838,-97.5332,0.0,8.0,1111122 
TCOON,ioos:station:TCOON:043:1,2015-07-07T16:30:00Z,27.8838,-97.5332,0.0,8.0,1111122 
TCOON,ioos:station:TCOON:043:1,2015-07-07T17:30:00Z,27.8838,-97.5332,0.0,7.9,1111122 
TCOON,ioos:station:TCOON:043:1,2015-07-07T18:30:00Z,27.8838,-97.5332,0.0,7.7,1111122 
TCOON,ioos:station:TCOON:043:1,2015-07-07T19:30:00Z,27.8838,-97.5332,0.0,7.5,1111122 
TCOON,ioos:station:TCOON:043:1,2015-07-07T20:30:00Z,27.8838,-97.5332,0.0,7.3,1111122 
TCOON,ioos:station:TCOON:043:1,2015-07-07T21:30:00Z,27.8838,-97.5332,0.0,7.3,1111122 
TCOON,ioos:station:TCOON:043:1,2015-07-07T22:30:00Z,27.8838,-97.5332,0.0,7.2,1111122 
TCOON,ioos:station:TCOON:043:1,2015-07-07T23:30:00Z,27.8838,-97.5332,0.0,7.2,1111122 
TCOON,ioos:station:TCOON:043:1,2015-07-08T00:30:00Z,27.8838,-97.5332,0.0,7.2,1111122 
TCOON,ioos:station:TCOON:043:1,2015-07-08T01:30:00Z,27.8838,-97.5332,0.0,7.2,1111122 
TCOON,ioos:station:TCOON:043:1,2015-07-08T02:30:00Z,27.8838,-97.5332,0.0,7.2,1111122 
TCOON,ioos:station:TCOON:043:1,2015-07-08T03:30:00Z,27.8838,-97.5332,0.0,7.2,1111122 
TCOON,ioos:station:TCOON:043:1,2015-07-08T04:30:00Z,27.8838,-97.5332,0.0,7.2,1111122 
TCOON,ioos:station:TCOON:043:1,2015-07-08T05:30:00Z,27.8838,-97.5332,0.0,7.2,1111122 
TCOON,ioos:station:TCOON:043:1,2015-07-08T06:30:00Z,27.8838,-97.5332,0.0,7.3,1111122 
TCOON,ioos:station:TCOON:043:1,2015-07-08T07:30:00Z,27.8838,-97.5332,0.0,7.4,1111122 
TCOON,ioos:station:TCOON:043:1,2015-07-08T08:30:00Z,27.8838,-97.5332,0.0,7.4,1111122 
TCOON,ioos:station:TCOON:043:1,2015-07-08T09:30:00Z,27.8838,-97.5332,0.0,7.4,1111122 
TCOON,ioos:station:TCOON:043:1,2015-07-08T10:30:00Z,27.8838,-97.5332,0.0,7.6,1111122 
TCOON,ioos:station:TCOON:043:1,2015-07-08T11:30:00Z,27.8838,-97.5332,0.0,8.0,1111122 
TCOON,ioos:station:TCOON:043:1,2015-07-08T12:30:00Z,27.8838,-97.5332,0.0,8.3,1111122 
TCOON,ioos:station:TCOON:043:1,2015-07-08T13:30:00Z,27.8838,-97.5332,0.0,8.3,1111122 
TCOON,ioos:station:TCOON:043:1,2015-07-08T14:30:00Z,27.8838,-97.5332,0.0,8.2,1111122 
TCOON,ioos:station:TCOON:043:1,2015-07-08T15:30:00Z,27.8838,-97.5332,0.0,8.1,1111122 
TCOON,ioos:station:TCOON:043:1,2015-07-08T16:30:00Z,27.8838,-97.5332,0.0,7.9,1111122 
TCOON,ioos:station:TCOON:043:1,2015-07-08T17:30:00Z,27.8838,-97.5332,0.0,8.1,1111122 
TCOON,ioos:station:TCOON:043:1,2015-07-08T18:30:00Z,27.8838,-97.5332,0.0,7.9,1111122 
TCOON,ioos:station:TCOON:043:1,2015-07-08T19:30:00Z,27.8838,-97.5332,0.0,7.6,1111122 
TCOON,ioos:station:TCOON:043:1,2015-07-08T20:30:00Z,27.8838,-97.5332,0.0,7.6,1111122 
TCOON,ioos:station:TCOON:043:1,2015-07-08T21:30:00Z,27.8838,-97.5332,0.0,7.4,1111122 
TCOON,ioos:station:TCOON:043:1,2015-07-08T22:30:00Z,27.8838,-97.5332,0.0,7.3,1111122 
TCOON,ioos:station:TCOON:043:1,2015-07-08T23:30:00Z,27.8838,-97.5332,0.0,7.3,1111122 
TCOON,ioos:station:TCOON:043:1,2015-07-09T00:30:00Z,27.8838,-97.5332,0.0,7.3,1111122 
TCOON,ioos:station:TCOON:043:1,2015-07-09T01:30:00Z,27.8838,-97.5332,0.0,7.2,1111122 
TCOON,ioos:station:TCOON:043:1,2015-07-09T02:30:00Z,27.8838,-97.5332,0.0,7.3,1111122 
TCOON,ioos:station:TCOON:043:1,2015-07-09T03:30:00Z,27.8838,-97.5332,0.0,7.2,1111122 
TCOON,ioos:station:TCOON:043:1,2015-07-09T04:30:00Z,27.8838,-97.5332,0.0,7.3,1111122 
TCOON,ioos:station:TCOON:043:1,2015-07-09T05:30:00Z,27.8838,-97.5332,0.0,7.8,1111122 
TCOON,ioos:station:TCOON:043:1,2015-07-09T06:30:00Z,27.8838,-97.5332,0.0,7.9,1111122 
TCOON,ioos:station:TCOON:043:1,2015-07-09T07:30:00Z,27.8838,-97.5332,0.0,8.0,1111122 
TCOON,ioos:station:TCOON:043:1,2015-07-09T08:30:00Z,27.8838,-97.5332,0.0,8.0,1111122 
TCOON,ioos:station:TCOON:043:1,2015-07-09T09:30:00Z,27.8838,-97.5332,0.0,8.0,1111122 
TCOON,ioos:station:TCOON:043:1,2015-07-09T10:30:00Z,27.8838,-97.5332,0.0,8.1,1111122 
TCOON,ioos:station:TCOON:043:1,2015-07-09T11:30:00Z,27.8838,-97.5332,0.0,8.2,1111122 
TCOON,ioos:station:TCOON:043:1,2015-07-09T12:30:00Z,27.8838,-97.5332,0.0,8.0,1111122 
TCOON,ioos:station:TCOON:043:1,2015-07-09T14:00:00Z,27.8838,-97.5332,0.0,8.1,1111122 
TCOON,ioos:station:TCOON:043:1,2015-07-09T15:00:00Z,27.8838,-97.5332,0.0,8.1,1111122 
TCOON,ioos:station:TCOON:043:1,2015-07-09T15:30:00Z,27.8838,-97.5332,0.0,8.1,1111122 
TCOON,ioos:station:TCOON:043:1,2015-07-09T16:30:00Z,27.8838,-97.5332,0.0,8.0,1111122 
TCOON,ioos:station:TCOON:043:1,2015-07-09T17:30:00Z,27.8838,-97.5332,0.0,7.9,1111122 
TCOON,ioos:station:TCOON:043:1,2015-07-09T18:30:00Z,27.8838,-97.5332,0.0,8.0,1111122 
TCOON,ioos:station:TCOON:043:1,2015-07-09T19:30:00Z,27.8838,-97.5332,0.0,8.0,1111122 
TCOON,ioos:station:TCOON:043:1,2015-07-09T20:30:00Z,27.8838,-97.5332,0.0,7.9,1111122 
TCOON,ioos:station:TCOON:043:1,2015-07-09T21:30:00Z,27.8838,-97.5332,0.0,7.7,1111122 
TCOON,ioos:station:TCOON:043:1,2015-07-09T22:30:00Z,27.8838,-97.5332,0.0,7.6,1111122 
TCOON,ioos:station:TCOON:043:1,2015-07-09T23:30:00Z,27.8838,-97.5332,0.0,7.5,1111122 
TCOON,ioos:station:TCOON:043:1,2015-07-10T00:30:00Z,27.8838,-97.5332,0.0,7.5,1111122 
TCOON,ioos:station:TCOON:043:1,2015-07-10T01:30:00Z,27.8838,-97.5332,0.0,7.6,1111122 
TCOON,ioos:station:TCOON:043:1,2015-07-10T02:30:00Z,27.8838,-97.5332,0.0,7.6,1111122 
TCOON,ioos:station:TCOON:043:1,2015-07-10T03:30:00Z,27.8838,-97.5332,0.0,7.8,1111122 
TCOON,ioos:station:TCOON:043:1,2015-07-10T04:30:00Z,27.8838,-97.5332,0.0,8.0,1111122 
TCOON,ioos:station:TCOON:043:1,2015-07-10T05:30:00Z,27.8838,-97.5332,0.0,8.5,1111122 
TCOON,ioos:station:TCOON:043:1,2015-07-10T06:30:00Z,27.8838,-97.5332,0.0,64.3,1111122 
TCOON,ioos:station:TCOON:043:1,2015-07-10T07:30:00Z,27.8838,-97.5332,0.0,64.9,1111122 
TCOON,ioos:station:TCOON:043:1,2015-07-10T08:30:00Z,27.8838,-97.5332,0.0,64.9,1111122 
TCOON,ioos:station:TCOON:043:1,2015-07-10T09:30:00Z,27.8838,-97.5332,0.0,64.0,1111122 
TCOON,ioos:station:TCOON:043:1,2015-07-10T10:30:00Z,27.8838,-97.5332,0.0,64.4,1111122 
TCOON,ioos:station:TCOON:043:1,2015-07-10T11:30:00Z,27.8838,-97.5332,0.0,64.0,1111122 
TCOON,ioos:station:TCOON:043:1,2015-07-10T12:30:00Z,27.8838,-97.5332,0.0,62.9,1111122 
TCOON,ioos:station:TCOON:043:1,2015-07-10T13:30:00Z,27.8838,-97.5332,0.0,63.6,1111122 
TCOON,ioos:station:TCOON:043:1,2015-07-10T14:30:00Z,27.8838,-97.5332,0.0,63.5,1111122 
TCOON,ioos:station:TCOON:043:1,2015-07-10T15:30:00Z,27.8838,-97.5332,0.0,62.8,1111122 
TCOON,ioos:station:TCOON:043:1,2015-07-10T16:30:00Z,27.8838,-97.5332,0.0,62.7,1111122 
TCOON,ioos:station:TCOON:043:1,2015-07-10T17:30:00Z,27.8838,-97.5332,0.0,63.5,1111122 
TCOON,ioos:station:TCOON:043:1,2015-07-10T18:30:00Z,27.8838,-97.5332,0.0,62.8,1111122 
TCOON,ioos:station:TCOON:043:1,2015-07-10T19:30:00Z,27.8838,-97.5332,0.0,60.4,1111122 
TCOON,ioos:station:TCOON:043:1,2015-07-10T20:30:00Z,27.8838,-97.5332,0.0,59.6,1111122 
TCOON,ioos:station:TCOON:043:1,2015-07-10T21:30:00Z,27.8838,-97.5332,0.0,59.0,1111122 
TCOON,ioos:station:TCOON:043:1,2015-07-10T22:30:00Z,27.8838,-97.5332,0.0,57.5,1111122 
TCOON,ioos:station:TCOON:043:1,2015-07-10T23:30:00Z,27.8838,-97.5332,0.0,57.0,1111122 
TCOON,ioos:station:TCOON:043:1,2015-07-11T00:30:00Z,27.8838,-97.5332,0.0,57.2,1111122 
TCOON,ioos:station:TCOON:043:1,2015-07-11T01:30:00Z,27.8838,-97.5332,0.0,57.9,1111122 
TCOON,ioos:station:TCOON:043:1,2015-07-11T02:30:00Z,27.8838,-97.5332,0.0,58.7,1111122 
TCOON,ioos:station:TCOON:043:1,2015-07-11T03:30:00Z,27.8838,-97.5332,0.0,63.6,1111122 
TCOON,ioos:station:TCOON:043:1,2015-07-11T04:30:00Z,27.8838,-97.5332,0.0,63.8,1111122 
TCOON,ioos:station:TCOON:043:1,2015-07-11T05:30:00Z,27.8838,-97.5332,0.0,64.2,1111122 
TCOON,ioos:station:TCOON:043:1,2015-07-11T06:30:00Z,27.8838,-97.5332,0.0,64.9,1111122 
TCOON,ioos:station:TCOON:043:1,2015-07-11T08:00:00Z,27.8838,-97.5332,0.0,65.6,1111122 
TCOON,ioos:station:TCOON:043:1,2015-07-11T08:30:00Z,27.8838,-97.5332,0.0,65.8,1111122 
TCOON,ioos:station:TCOON:043:1,2015-07-11T09:30:00Z,27.8838,-97.5332,0.0,65.7,1111122 
TCOON,ioos:station:TCOON:043:1,2015-07-11T10:30:00Z,27.8838,-97.5332,0.0,65.5,1111122 
TCOON,ioos:station:TCOON:043:1,2015-07-11T11:30:00Z,27.8838,-97.5332,0.0,65.2,1111122 
TCOON,ioos:station:TCOON:043:1,2015-07-11T12:30:00Z,27.8838,-97.5332,0.0,65.3,1111122 
TCOON,ioos:station:TCOON:043:1,2015-07-11T13:30:00Z,27.8838,-97.5332,0.0,65.3,1111122 
TCOON,ioos:station:TCOON:043:1,2015-07-11T14:30:00Z,27.8838,-97.5332,0.0,66.0,1111122 
TCOON,ioos:station:TCOON:043:1,2015-07-11T15:30:00Z,27.8838,-97.5332,0.0,66.5,1111122 
TCOON,ioos:station:TCOON:043:1,2015-07-11T16:30:00Z,27.8838,-97.5332,0.0,66.5,1111122 
TCOON,ioos:station:TCOON:043:1,2015-07-11T17:30:00Z,27.8838,-97.5332,0.0,65.3,1111122 
TCOON,ioos:station:TCOON:043:1,2015-07-11T18:30:00Z,27.8838,-97.5332,0.0,62.1,1111122 
TCOON,ioos:station:TCOON:043:1,2015-07-11T19:30:00Z,27.8838,-97.5332,0.0,61.2,1111122 
TCOON,ioos:station:TCOON:043:1,2015-07-11T20:30:00Z,27.8838,-97.5332,0.0,59.4,1111122 
TCOON,ioos:station:TCOON:043:1,2015-07-11T21:30:00Z,27.8838,-97.5332,0.0,59.3,1111122 
TCOON,ioos:station:TCOON:043:1,2015-07-11T22:30:00Z,27.8838,-97.5332,0.0,59.5,1111122 
TCOON,ioos:station:TCOON:043:1,2015-07-11T23:30:00Z,27.8838,-97.5332,0.0,59.3,1111122 
TCOON,ioos:station:TCOON:043:1,2015-07-12T00:30:00Z,27.8838,-97.5332,0.0,59.0,1111122 
TCOON,ioos:station:TCOON:043:1,2015-07-12T01:30:00Z,27.8838,-97.5332,0.0,59.1,1111122 
TCOON,ioos:station:TCOON:043:1,2015-07-12T02:30:00Z,27.8838,-97.5332,0.0,59.7,1111122 
TCOON,ioos:station:TCOON:043:1,2015-07-12T03:30:00Z,27.8838,-97.5332,0.0,64.9,1111122 
TCOON,ioos:station:TCOON:043:1,2015-07-12T04:30:00Z,27.8838,-97.5332,0.0,64.4,1111122 
TCOON,ioos:station:TCOON:043:1,2015-07-12T05:30:00Z,27.8838,-97.5332,0.0,64.6,1111122 
TCOON,ioos:station:TCOON:043:1,2015-07-12T06:30:00Z,27.8838,-97.5332,0.0,64.8,1111122 
TCOON,ioos:station:TCOON:043:1,2015-07-12T07:30:00Z,27.8838,-97.5332,0.0,65.9,1111122 
TCOON,ioos:station:TCOON:043:1,2015-07-12T08:30:00Z,27.8838,-97.5332,0.0,66.9,1111122 
TCOON,ioos:station:TCOON:043:1,2015-07-12T09:30:00Z,27.8838,-97.5332,0.0,67.0,1111122 
TCOON,ioos:station:TCOON:043:1,2015-07-12T10:30:00Z,27.8838,-97.5332,0.0,67.3,1111122 
TCOON,ioos:station:TCOON:043:1,2015-07-12T11:30:00Z,27.8838,-97.5332,0.0,67.4,1111122 
TCOON,ioos:station:TCOON:043:1,2015-07-12T12:30:00Z,27.8838,-97.5332,0.0,67.4,1111122 
TCOON,ioos:station:TCOON:043:1,2015-07-12T13:30:00Z,27.8838,-97.5332,0.0,67.3,1111122 
TCOON,ioos:station:TCOON:043:1,2015-07-12T14:30:00Z,27.8838,-97.5332,0.0,67.8,1111122 
TCOON,ioos:station:TCOON:043:1,2015-07-12T15:30:00Z,27.8838,-97.5332,0.0,68.0,1111122 
TCOON,ioos:station:TCOON:043:1,2015-07-12T16:30:00Z,27.8838,-97.5332,0.0,68.0,1111122 
TCOON,ioos:station:TCOON:043:1,2015-07-12T17:30:00Z,27.8838,-97.5332,0.0,68.7,1111122 
TCOON,ioos:station:TCOON:043:1,2015-07-12T18:30:00Z,27.8838,-97.5332,0.0,67.3,1111122 
TCOON,ioos:station:TCOON:043:1,2015-07-12T19:30:00Z,27.8838,-97.5332,0.0,67.9,1111122 
TCOON,ioos:station:TCOON:043:1,2015-07-12T20:30:00Z,27.8838,-97.5332,0.0,66.9,1111122 
TCOON,ioos:station:TCOON:043:1,2015-07-12T21:30:00Z,27.8838,-97.5332,0.0,68.3,1111122 
TCOON,ioos:station:TCOON:043:1,2015-07-12T22:30:00Z,27.8838,-97.5332,0.0,67.2,1111122 
TCOON,ioos:station:TCOON:043:1,2015-07-12T23:30:00Z,27.8838,-97.5332,0.0,69.1,1111122 
TCOON,ioos:station:TCOON:043:1,2015-07-13T00:30:00Z,27.8838,-97.5332,0.0,69.0,1111122 
TCOON,ioos:station:TCOON:043:1,2015-07-13T01:30:00Z,27.8838,-97.5332,0.0,68.2,1111122 
TCOON,ioos:station:TCOON:043:1,2015-07-13T02:30:00Z,27.8838,-97.5332,0.0,68.4,1111122 
TCOON,ioos:station:TCOON:043:1,2015-07-13T03:30:00Z,27.8838,-97.5332,0.0,69.0,1111122 
TCOON,ioos:station:TCOON:043:1,2015-07-13T15:30:00Z,27.8838,-97.5332,0.0,5.7,1111122 
TCOON,ioos:station:TCOON:043:1,2015-07-13T16:30:00Z,27.8838,-97.5332,0.0,5.6,1111122 
TCOON,ioos:station:TCOON:043:1,2015-07-13T17:30:00Z,27.8838,-97.5332,0.0,5.7,1111122 
TCOON,ioos:station:TCOON:043:1,2015-07-13T18:30:00Z,27.8838,-97.5332,0.0,5.7,1111122 
TCOON,ioos:station:TCOON:043:1,2015-07-13T19:30:00Z,27.8838,-97.5332,0.0,5.6,1111122 